[[{"header":{"parameterUnit":"m.s-1","parameterCategory":1,"la1":30.2991,"la2":30.254,"lo1":-89.0895,"lo2":-89.0444,"dy":0.0017,"dx":0.0017,"nx":28,"ny":28,"refTime":"2024-06-01T03:00:00:Z","depth":0,"parameterNumber":2,"parameterNumberName":"U-component_of_WINDS"},"data":[0,0,0,0,0,0,0,0,0,0,0,0,0,0,0,0,0,0,0,0,0,0,0,0,0,0,0,0,0,0,0,0,0,0,0,0,0,0,0,0,0,0,0,0,0,0,0,0,0,0,0,0,0,0,0,0,0,0,-0.4742,-0.4742,0,-0.4732,-0.4732,-0.4732,-0.47,-0.47,-0.4699,-0.4698,-0.469,-0.469,-0.4691,0,0,0,0,0,0,0,0,0,0,0,0,0,-0.4734,-0.4734,-0.4742,-0.4742,-0.4742,-0.4732,-0.4732,-0.4732,-0.4701,-0.47,-0.4699,-0.4698,-0.469,-0.469,-0.4691,0,0,0,0,0,0,0,0,0,0,0,0,0,-0.4732,-0.4734,-0.4742,-0.4725,-0.4723,-0.4732,-0.4732,-0.4732,-0.4701,-0.47,-0.4699,-0.4698,-0.4689,-0.469,-0.4691,-0.4716,0,0,-0.4693,-0.4693,0,0,0,0,0,0,0,0,-0.4732,-0.4733,-0.4727,-0.4726,-0.4724,-0.4716,-0.4726,-0.4727,-0.4701,-0.4709,-0.4698,-0.4697,-0.47,-0.4699,-0.47,-0.4716,-0.4716,-0.4693,-0.4693,-0.4694,-0.4694,0,0,0,0,0,0,0,-0.4733,-0.4733,-0.4738,-0.4727,-0.4725,-0.4718,-0.4717,-0.4726,-0.4711,-0.4708,-0.4706,-0.4705,-0.4699,-0.4699,-0.47,-0.4716,-0.4693,-0.4693,-0.4694,-0.4694,-0.4753,-0.4754,0,0,0,0,0,0,-0.4735,-0.4733,-0.4738,-0.4738,-0.4726,-0.4719,-0.4717,-0.472,-0.471,-0.4708,-0.4706,-0.4704,-0.4699,-0.4699,-0.4699,-0.4729,-0.4694,-0.4694,-0.4695,-0.4752,-0.4754,-0.4755,0,0,0,0,0,0,-0.4735,-0.4736,-0.4739,-0.4735,-0.4735,-0.472,-0.4723,-0.472,-0.4721,-0.4709,-0.4706,-0.471,-0.4698,-0.4698,-0.4713,-0.4729,-0.4694,-0.4695,-0.4751,-0.4753,-0.4754,-0.479,0,0,0,0,0,0,-0.4735,-0.4736,-0.4745,-0.4735,-0.4735,-0.4752,-0.4724,-0.4721,-0.4722,-0.4719,-0.4712,-0.4709,-0.4697,-0.4712,-0.4713,-0.4729,-0.4696,-0.4749,-0.4752,-0.4754,-0.4787,-0.4792,-0.4797,0,0,0,0,0,-0.4735,-0.4756,-0.4746,-0.4747,-0.4746,-0.4753,-0.4753,-0.4738,-0.4724,-0.4733,-0.4725,-0.471,-0.4727,-0.4713,-0.4715,-0.4731,-0.4748,-0.4751,-0.4754,-0.4785,-0.4791,-0.4797,0,0,0,0,0,0,-0.4768,-0.4754,-0.4743,-0.4761,-0.4758,-0.4748,-0.4759,-0.4746,-0.4747,-0.4744,-0.4726,-0.4725,-0.4742,-0.4738,-0.4724,-0.4756,-0.4735,-0.4738,-0.4758,-0.4764,-0.4769,-0.477,-0.4696,0,0,0,0,0,-0.4777,-0.4783,-0.4771,-0.4788,-0.4788,-0.4774,-0.4776,-0.4765,-0.4762,-0.4761,-0.4754,-0.4751,-0.4756,-0.476,-0.4764,-0.4786,-0.4785,-0.4798,-0.4803,-0.4807,-0.481,-0.4823,-0.4829,-0.4764,-0.4764,-0.4763,0,0,-0.4797,-0.479,-0.4795,-0.4795,-0.4792,-0.4799,-0.4773,-0.4782,-0.4787,-0.4762,-0.4775,-0.477,-0.4767,-0.4785,-0.4793,-0.4782,-0.4828,-0.4811,-0.4814,-0.4815,-0.4826,-0.4832,-0.4838,-0.4765,-0.4765,-0.4765,0,0,-0.4837,-0.4832,-0.4846,-0.4843,-0.4838,-0.4829,-0.4832,-0.4824,-0.4819,-0.4832,-0.4814,-0.482,-0.4829,-0.4827,-0.4828,-0.4867,-0.4853,-0.4869,-0.4896,-0.4908,-0.4913,-0.4918,-0.4933,-0.4938,-0.4872,-0.4872,-0.4872,0,-0.4862,-0.4872,-0.4855,-0.4865,-0.4866,-0.4843,-0.4858,-0.4856,-0.4853,-0.4855,-0.4842,-0.4853,-0.4849,-0.4868,-0.4877,-0.4878,-0.4882,-0.487,-0.4914,-0.4918,-0.4922,-0.4936,-0.4942,-0.4874,-0.4874,-0.4874,-0.4874,0,-0.4903,-0.4911,-0.4923,-0.492,-0.4922,-0.4935,-0.4921,-0.4925,-0.4914,-0.4906,-0.492,-0.4915,-0.4917,-0.4921,-0.491,-0.4938,-0.4932,-0.4917,-0.4895,-0.4931,-0.4944,-0.4949,-0.4877,-0.4876,-0.4876,-0.4875,0,0,-0.4964,-0.4952,-0.4957,-0.4956,-0.4949,-0.4955,-0.4967,-0.4969,-0.4973,-0.4972,-0.4982,-0.499,-0.4977,-0.4977,-0.4966,-0.4977,-0.501,-0.4961,-0.496,-0.4971,-0.5042,-0.5053,-0.506,-0.5,-0.5001,-0.5002,-0.5042,0,-0.5002,-0.5021,-0.5007,-0.5029,-0.5036,-0.5015,-0.5025,-0.5022,-0.5016,-0.5021,-0.5013,-0.502,-0.5001,-0.5001,-0.5011,-0.5004,-0.5024,-0.5001,-0.501,-0.5011,-0.5013,-0.5067,-0.5079,-0.5117,-0.5047,-0.5048,-0.5049,0,-0.505,-0.505,-0.5073,-0.5065,-0.5068,-0.5077,-0.5079,-0.5084,-0.5081,-0.5075,-0.5076,-0.5062,-0.5074,-0.5053,-0.5069,-0.5054,-0.5057,-0.5054,-0.5055,-0.5056,-0.5032,-0.507,-0.5129,-0.5135,-0.5056,-0.5056,-0.5055,0,-0.5093,-0.5099,-0.5114,-0.5114,-0.5105,-0.5112,-0.5109,-0.5105,-0.5107,-0.5109,-0.511,-0.5113,-0.5115,-0.5118,-0.5105,-0.5091,-0.5124,-0.5101,-0.512,-0.5121,-0.5129,-0.5128,-0.519,-0.5129,-0.5129,-0.5129,-0.5129,0,-0.5138,-0.5153,-0.5133,-0.5142,-0.5159,-0.5142,-0.5159,-0.5154,-0.515,-0.5158,-0.514,-0.5148,-0.5131,-0.5138,-0.5128,-0.5144,-0.5144,-0.5141,-0.5138,-0.5143,-0.5144,-0.5145,-0.5143,-0.5131,-0.513,-0.513,-0.513,0,-0.5189,-0.5176,-0.5191,-0.5181,-0.5179,-0.5192,-0.5184,-0.5193,-0.5185,-0.5195,-0.5197,-0.5184,-0.5191,-0.5179,-0.5185,-0.5178,-0.52,-0.5193,-0.5201,-0.52,-0.522,-0.5219,-0.5285,-0.5294,-0.5227,-0.5228,-0.5228,0,-0.5219,-0.523,-0.5221,-0.5225,-0.5223,-0.523,-0.5232,-0.5217,-0.522,-0.5218,-0.5227,-0.5232,-0.5235,-0.5248,-0.524,-0.5244,-0.5237,-0.526,-0.5238,-0.5242,-0.5239,-0.5239,-0.524,-0.5265,-0.5266,-0.5267,-0.5267,0,-0.5273,-0.5267,-0.5271,-0.5273,-0.5277,-0.5278,-0.5277,-0.5282,-0.5265,-0.527,-0.5277,-0.528,-0.5285,-0.5291,-0.5294,-0.5291,-0.5277,-0.5274,-0.5279,-0.5284,-0.5289,-0.5288,-0.5215,-0.5273,-0.5272,-0.5272,-0.5272,-0.5271,-0.5315,-0.5325,-0.532,-0.5326,-0.5324,-0.5324,-0.5332,-0.5325,-0.533,-0.5333,-0.5323,-0.5333,-0.533,-0.5332,-0.533,-0.5338,-0.5328,-0.5334,-0.5336,-0.5339,-0.5342,-0.5287,-0.5338,-0.5338,-0.5338,-0.5338,-0.5337,0,-0.537,-0.5366,-0.5371,-0.5372,-0.5376,-0.5362,-0.5361,-0.5366,-0.5374,-0.5372,-0.5376,-0.5384,-0.539,-0.5382,-0.5387,-0.5394,-0.5388,-0.5396,-0.5396,-0.5396,-0.535,-0.5346,-0.5401,-0.5401,-0.5401,-0.5401,-0.5401,-0.5401,-0.5399,-0.5414,-0.5407,-0.5421,-0.5417,-0.5426,-0.5427,-0.5427,-0.5426,-0.5436,-0.544,-0.5435,-0.5431,-0.5435,-0.544,-0.5438,-0.5441,-0.5452,-0.5447,-0.5405,-0.5399,-0.5393,-0.5389,-0.5452,-0.5452,-0.5492,-0.5492,-0.5493]},{"header":{"parameterUnit":"m.s-1","parameterCategory":1,"la1":30.2991,"la2":30.254,"lo1":-89.0895,"lo2":-89.0444,"dy":0.0017,"dx":0.0017,"nx":28,"ny":28,"refTime":"2024-06-01T03:00:00:Z","depth":0,"parameterNumber":3,"parameterNumberName":"V-component_of_WINDS"},"data":[0,0,0,0,0,0,0,0,0,0,0,0,0,0,0,0,0,0,0,0,0,0,0,0,0,0,0,0,0,0,0,0,0,0,0,0,0,0,0,0,0,0,0,0,0,0,0,0,0,0,0,0,0,0,0,0,0,0,3.7697,3.7697,0,3.7701,3.7701,3.7701,3.7634,3.7632,3.763,3.7629,3.7633,3.7634,3.7636,0,0,0,0,0,0,0,0,0,0,0,0,0,3.763,3.7632,3.7697,3.7697,3.7697,3.7701,3.7701,3.7701,3.7634,3.7632,3.763,3.7628,3.7632,3.7634,3.7636,0,0,0,0,0,0,0,0,0,0,0,0,0,3.7649,3.7633,3.7697,3.7664,3.7662,3.7701,3.7701,3.7701,3.7635,3.7632,3.7629,3.7627,3.7631,3.7634,3.7637,3.7708,0,0,3.7645,3.7646,0,0,0,0,0,0,0,0,3.7648,3.7652,3.7669,3.7667,3.7664,3.7664,3.7679,3.7703,3.7635,3.7645,3.7629,3.7625,3.7645,3.7647,3.7653,3.7708,3.7708,3.7645,3.7647,3.7648,3.7649,0,0,0,0,0,0,0,3.7647,3.7651,3.7699,3.767,3.7666,3.7649,3.7649,3.7683,3.766,3.7644,3.7639,3.764,3.7643,3.7651,3.7653,3.7708,3.7645,3.7647,3.7649,3.765,3.7819,3.7822,0,0,0,0,0,0,3.7651,3.7651,3.7699,3.7699,3.7649,3.7652,3.7652,3.7667,3.766,3.7656,3.7643,3.7637,3.7648,3.765,3.7653,3.7734,3.7648,3.765,3.7652,3.7817,3.782,3.7823,0,0,0,0,0,0,3.7649,3.7655,3.7698,3.7674,3.7678,3.7657,3.7674,3.7668,3.7676,3.7659,3.7654,3.7655,3.7646,3.7649,3.7694,3.7733,3.7651,3.7654,3.7813,3.7818,3.7822,3.7899,0,0,0,0,0,0,3.7648,3.7655,3.7683,3.7675,3.7679,3.774,3.7676,3.767,3.7681,3.7674,3.7669,3.7666,3.7644,3.7691,3.7697,3.7736,3.7656,3.7809,3.7815,3.782,3.7893,3.7905,3.7916,0,0,0,0,0,3.7646,3.7705,3.7684,3.7691,3.7713,3.7743,3.7745,3.7719,3.7684,3.7711,3.77,3.7666,3.7729,3.7696,3.7702,3.7743,3.7807,3.7813,3.782,3.7887,3.7903,3.7916,0,0,0,0,0,0,3.7718,3.7703,3.768,3.7739,3.7743,3.7731,3.7764,3.7736,3.775,3.7743,3.7709,3.7709,3.7759,3.7755,3.7719,3.781,3.7761,3.777,3.7811,3.7825,3.7837,3.7836,3.7658,0,0,0,0,0,3.7741,3.7767,3.7752,3.7805,3.7808,3.7786,3.7798,3.7777,3.778,3.7781,3.7773,3.7777,3.7797,3.7811,3.7829,3.7892,3.7889,3.7923,3.7935,3.7944,3.7951,3.7983,3.7997,3.7844,3.7844,3.7844,0,0,3.7788,3.7783,3.7802,3.7819,3.782,3.7846,3.7788,3.7819,3.7838,3.7786,3.7827,3.7822,3.7823,3.7878,3.7901,3.7876,3.7993,3.7953,3.796,3.7962,3.7991,3.8006,3.8019,3.7849,3.7848,3.7847,0,0,3.7888,3.7888,3.793,3.7932,3.7933,3.7918,3.7928,3.7921,3.7915,3.7957,3.7917,3.794,3.7976,3.7978,3.7984,3.8083,3.8052,3.809,3.8151,3.8182,3.8194,3.8204,3.8239,3.8251,3.8097,3.8098,3.8098,0,3.7947,3.7986,3.7956,3.7989,3.7998,3.7951,3.7994,3.7997,3.8004,3.801,3.7983,3.8026,3.8024,3.8077,3.8101,3.8108,3.8118,3.809,3.8195,3.8205,3.8214,3.8246,3.8259,3.8102,3.8102,3.8101,3.8101,0,3.8057,3.8084,3.8119,3.8126,3.8138,3.8177,3.8152,3.8168,3.8146,3.8134,3.8176,3.8172,3.8187,3.8198,3.8178,3.8248,3.8233,3.8201,3.8151,3.8234,3.8263,3.8275,3.8109,3.8107,3.8106,3.8104,0,0,3.8202,3.8192,3.8205,3.8207,3.8205,3.8225,3.826,3.8275,3.8289,3.8295,3.8323,3.8354,3.8324,3.8331,3.831,3.8337,3.8414,3.8301,3.8301,3.8321,3.8491,3.8514,3.8529,3.8394,3.8396,3.8398,3.849,0,3.8298,3.8357,3.8332,3.8394,3.8418,3.8373,3.8404,3.8405,3.8395,3.8413,3.8401,3.8423,3.8382,3.8386,3.8411,3.84,3.8448,3.8393,3.8419,3.842,3.8419,3.8544,3.8569,3.8656,3.8501,3.8503,3.8505,0,3.8417,3.8428,3.8492,3.8483,3.8493,3.8521,3.8531,3.855,3.855,3.854,3.8548,3.852,3.8553,3.8505,3.855,3.8513,3.8522,3.8518,3.8521,3.8521,3.8467,3.8547,3.8683,3.8696,3.8523,3.8521,3.852,0,3.8515,3.8545,3.8587,3.859,3.8582,3.8602,3.86,3.8598,3.8608,3.8617,3.8623,3.8637,3.8644,3.8655,3.8631,3.8598,3.8679,3.8628,3.8671,3.8671,3.8689,3.8688,3.8828,3.8697,3.8697,3.8697,3.8697,0,3.8624,3.8665,3.8631,3.8656,3.87,3.867,3.8714,3.8707,3.8705,3.8728,3.8691,3.8713,3.8681,3.87,3.8682,3.8721,3.8725,3.8718,3.8712,3.872,3.8721,3.8725,3.8718,3.87,3.87,3.8699,3.8698,0,3.874,3.8719,3.8762,3.875,3.8748,3.8781,3.877,3.8793,3.8779,3.8809,3.8814,3.8793,3.8813,3.8791,3.881,3.8798,3.8851,3.8837,3.885,3.8846,3.8889,3.8885,3.9035,3.9052,3.8912,3.8914,3.8915,0,3.881,3.884,3.8831,3.8844,3.8843,3.8864,3.8874,3.8845,3.8856,3.8858,3.8881,3.8898,3.891,3.8945,3.8931,3.8945,3.8931,3.8982,3.8933,3.8939,3.893,3.8928,3.893,3.8992,3.8994,3.8995,3.8996,0,3.8936,3.8924,3.8939,3.8951,3.8963,3.8971,3.8976,3.8989,3.8958,3.8973,3.8993,3.9003,3.9021,3.9039,3.9049,3.9046,3.9016,3.9012,3.9022,3.903,3.9036,3.9032,3.8876,3.9009,3.9008,3.9007,3.9006,3.9005,3.9031,3.9054,3.9051,3.9069,3.907,3.9075,3.9095,3.9084,3.91,3.9113,3.9095,3.9119,3.9118,3.9128,3.9128,3.9147,3.9125,3.914,3.9144,3.9148,3.9154,3.9035,3.9149,3.9149,3.9148,3.9148,3.9148,0,3.9153,3.9149,3.9166,3.9173,3.9187,3.9157,3.9161,3.9175,3.9197,3.9197,3.921,3.9232,3.9249,3.9236,3.9249,3.9267,3.9253,3.9271,3.9269,3.9268,3.9173,3.9162,3.9282,3.9282,3.9282,3.9282,3.9282,3.9282,3.9219,3.9257,3.9244,3.9282,3.9277,3.9301,3.9305,3.9309,3.931,3.9336,3.9349,3.9341,3.9336,3.9349,3.9362,3.9358,3.9364,3.9386,3.9377,3.9289,3.9275,3.9263,3.9252,3.9388,3.9389,3.9471,3.9471,3.9472]}]]